Regional Weather Roundup
Issued by NWS Cleveland, OH

Home | Current Version | Previous Version | Graphics & Text | Print | Product List | Glossary On
Versions: 1 2 3 4 5 6 7 8 9 10 11 12 13 14 15 16 17 18 19 20 21 22 23 24 25 26 27 28 29 30 31 32 33 34 35 36 37 38 39 40 41 42 43 44 45 46 47 48 49 50
000
ASUS41 KCLE 240712
RWRCLE
OHIO REGIONAL WEATHER ROUNDUP
NATIONAL WEATHER SERVICE WILMINGTON, OH
200 AM EST FRI FEB 24 2017

NOTE: "FAIR" INDICATES FEW OR NO CLOUDS BELOW 12,000 FEET WITH NO
SIGNIFICANT WEATHER AND/OR OBSTRUCTIONS TO VISIBILITY.

OHZ001>008-015>018-024>027-034-035-043-044-240800-
   NORTHWEST OHIO

CITY           SKY/WX    TMP DP  RH WIND       PRES   REMARKS
DEFIANCE       MOCLDY    45  41  86 E10       29.73F
FINDLAY        LGT RAIN  49  43  80 NE8       29.73S
TOLEDO EXPRESS CLOUDY    42  41  96 NE12      29.76S
TOLEDO EXEC    CLOUDY    42  41  96 NE10      29.78F
LIMA           CLOUDY    57  55  93 S7        29.72R
$$

OHZ009>014-019>023-028>033-038-089-240800-
   NORTHEAST OHIO

CITY           SKY/WX    TMP DP  RH WIND       PRES   REMARKS
CLE-HOPKINS    CLOUDY    51  47  86 CALM      29.77F FOG
CLE-LAKEFRONT  FAIR      42  41  96 CALM      29.74F FOG
CUY CO. ARPT   NOT AVBL
LORAIN-ELYRIA  MOCLDY    49  46  90 N3        29.76S FOG
ASHTABULA      CLOUDY    50  49  96 CALM      29.78F FOG
AKRON-CANTON   MOCLDY    58  54  86 S10       29.76F
WOOSTER        FAIR      56  53  90 S7        29.76F
MANSFIELD      FAIR      57  55  93 S7        29.75S
YOUNGSTOWN     MOCLDY    56  54  93 SE9       29.79F
$$

OHZ042-051>053-060>062-070>072-077>081-240800-
  SOUTHWEST OHIO

CITY           SKY/WX    TMP DP  RH WIND       PRES   REMARKS
CINC-COVINGTON FAIR      57  53  86 S9        29.72S
CINC-LUNKEN    FAIR      60  55  83 S8        29.73F
HAMILTON       MOCLDY    63  56  78 S6        29.73R
DAYTON         MOCLDY    59  54  83 S10       29.73S
WRIGHT-PAT AFB FAIR      59  58  97 SE10      29.72S
DAYTON GENERAL MOCLDY    60  54  80 S13       29.72R
WILMINGTON     FAIR      59  53  80 S12       29.73F
$$

OHZ036-037-039>041-045>050-054>059-063>069-073>076-082>088-240800-
  CENTRAL AND SOUTHEAST OHIO

CITY           SKY/WX    TMP DP  RH WIND       PRES   REMARKS
COLUMBUS       MOCLDY    60  56  86 SE5       29.74F
OSU AIRPORT    FAIR      59  56  89 S8        29.74S
BOLTON FIELD   FAIR      56  55  94 S7        29.76R
RICKENBACK AFB FAIR      59  55  87 S9        29.75S
NEWARK         FAIR      59  54  83 CALM      29.75F
MARION         CLOUDY    58  54  86 S6        29.75S
LANCASTER      FAIR      62  54  74 S8        29.76F
ZANESVILLE     FAIR      58  53  84 SE8       29.77F
NEW PHILLY     CLOUDY    54  54 100 SE5       29.79S FOG
$$




USA.gov is the U.S. government's official web portal to all federal, state and local government web resources and services.